TimeEST,TemperatureF,Dew PointF,Humidity,Sea Level PressureIn,VisibilityMPH,Wind Direction,Wind SpeedMPH,Gust SpeedMPH,PrecipitationIn,Events,Conditions,WindDirDegrees,DateUTC
12:15 AM,33.8,30.2,87,30.16,10.0,North,3.5,-,N/A,,Clear,10,2014-01-13 05:15:00
12:35 AM,35.6,32.0,87,30.15,10.0,NE,3.5,-,N/A,,Clear,50,2014-01-13 05:35:00
12:55 AM,35.6,30.2,81,30.15,10.0,Calm,Calm,-,N/A,,Clear,0,2014-01-13 05:55:00
1:15 AM,33.8,30.2,87,30.15,10.0,North,3.5,-,N/A,,Clear,10,2014-01-13 06:15:00
1:35 AM,33.8,30.2,87,30.15,10.0,NNE,4.6,-,N/A,,Clear,20,2014-01-13 06:35:00
1:55 AM,35.6,32.0,87,30.15,10.0,North,3.5,-,N/A,,Clear,10,2014-01-13 06:55:00
2:15 AM,33.8,32.0,93,30.16,10.0,NE,3.5,-,N/A,,Clear,50,2014-01-13 07:15:00
2:35 AM,33.8,30.2,87,30.16,10.0,NE,3.5,-,N/A,,Clear,40,2014-01-13 07:35:00
2:55 AM,32.0,28.4,87,30.16,10.0,NNE,3.5,-,N/A,,Clear,20,2014-01-13 07:55:00
3:15 AM,33.8,32.0,93,30.16,10.0,Calm,Calm,-,N/A,,Clear,0,2014-01-13 08:15:00
3:35 AM,32.0,30.2,93,30.16,10.0,Calm,Calm,-,N/A,,Clear,0,2014-01-13 08:35:00
3:55 AM,32.0,28.4,87,30.16,10.0,Calm,Calm,-,N/A,,Clear,0,2014-01-13 08:55:00
4:15 AM,32.0,28.4,87,30.16,10.0,Calm,Calm,-,N/A,,Clear,0,2014-01-13 09:15:00
4:35 AM,33.8,32.0,93,30.16,10.0,Calm,Calm,-,N/A,,Clear,0,2014-01-13 09:35:00
4:55 AM,32.0,30.2,93,30.16,10.0,Calm,Calm,-,N/A,,Clear,0,2014-01-13 09:55:00
5:15 AM,32.0,28.4,87,30.15,10.0,Calm,Calm,-,N/A,,Clear,0,2014-01-13 10:15:00
5:35 AM,32.0,30.2,93,30.13,10.0,ENE,3.5,-,N/A,,Clear,60,2014-01-13 10:35:00
5:55 AM,32.0,30.2,93,30.11,10.0,ENE,3.5,-,N/A,,Clear,60,2014-01-13 10:55:00
6:15 AM,32.0,28.4,87,30.11,10.0,Calm,Calm,-,N/A,,Clear,0,2014-01-13 11:15:00
6:35 AM,32.0,30.2,93,30.08,10.0,ENE,3.5,-,N/A,,Clear,70,2014-01-13 11:35:00
6:55 AM,32.0,28.4,87,30.09,10.0,Calm,Calm,-,N/A,,Clear,0,2014-01-13 11:55:00
7:15 AM,32.0,30.2,93,30.10,10.0,Calm,Calm,-,N/A,,Clear,0,2014-01-13 12:15:00
7:35 AM,33.8,32.0,93,30.12,10.0,Calm,Calm,-,N/A,,Clear,0,2014-01-13 12:35:00
7:55 AM,33.8,32.0,93,30.13,10.0,Calm,Calm,-,N/A,,Clear,0,2014-01-13 12:55:00
8:15 AM,35.6,32.0,87,30.14,10.0,Calm,Calm,-,N/A,,Clear,0,2014-01-13 13:15:00
8:35 AM,35.6,32.0,87,30.14,10.0,Calm,Calm,-,N/A,,Clear,0,2014-01-13 13:35:00
8:55 AM,33.8,30.2,87,30.13,10.0,Calm,Calm,-,N/A,,Clear,0,2014-01-13 13:55:00
9:15 AM,33.8,30.2,87,30.14,10.0,Calm,Calm,-,N/A,,Clear,0,2014-01-13 14:15:00
9:35 AM,37.4,32.0,81,30.14,10.0,Calm,Calm,-,N/A,,Scattered Clouds,0,2014-01-13 14:35:00
9:55 AM,41.0,32.0,70,30.13,10.0,Calm,Calm,-,N/A,,Scattered Clouds,0,2014-01-13 14:55:00
10:15 AM,39.2,32.0,75,30.13,10.0,Calm,Calm,-,N/A,,Scattered Clouds,0,2014-01-13 15:15:00
10:35 AM,42.8,32.0,66,30.13,10.0,Calm,Calm,-,N/A,,Scattered Clouds,0,2014-01-13 15:35:00
10:55 AM,44.6,32.0,61,30.11,10.0,ENE,3.5,-,N/A,,Mostly Cloudy,70,2014-01-13 15:55:00
11:15 AM,46.4,32.0,57,30.11,10.0,East,3.5,-,N/A,,Mostly Cloudy,80,2014-01-13 16:15:00
11:35 AM,48.2,32.0,54,30.08,10.0,East,3.5,-,N/A,,Scattered Clouds,80,2014-01-13 16:35:00
11:55 AM,48.2,32.0,54,30.08,10.0,Calm,Calm,-,N/A,,Mostly Cloudy,0,2014-01-13 16:55:00
12:15 PM,50.0,32.0,50,30.07,10.0,Calm,Calm,-,N/A,,Mostly Cloudy,0,2014-01-13 17:15:00
12:35 PM,50.0,32.0,50,30.04,10.0,Calm,Calm,-,N/A,,Mostly Cloudy,0,2014-01-13 17:35:00
12:55 PM,51.8,32.0,47,30.04,10.0,Calm,Calm,-,N/A,,Scattered Clouds,0,2014-01-13 17:55:00
1:15 PM,53.6,32.0,44,30.02,10.0,Calm,Calm,-,N/A,,Scattered Clouds,0,2014-01-13 18:15:00
1:35 PM,53.6,30.2,41,30.01,10.0,South,8.1,-,N/A,,Clear,190,2014-01-13 18:35:00
1:55 PM,53.6,28.4,38,30.00,10.0,South,4.6,-,N/A,,Clear,190,2014-01-13 18:55:00
2:15 PM,53.6,28.4,38,30.00,10.0,SSW,10.4,17.3,N/A,,Scattered Clouds,200,2014-01-13 19:15:00
2:35 PM,53.6,30.2,41,30.00,10.0,SSW,6.9,-,N/A,,Clear,200,2014-01-13 19:35:00
2:55 PM,55.4,28.4,36,29.99,10.0,South,4.6,-,N/A,,Clear,190,2014-01-13 19:55:00
3:15 PM,53.6,28.4,38,29.98,10.0,South,4.6,-,N/A,,Clear,190,2014-01-13 20:15:00
3:35 PM,53.6,28.4,38,29.97,10.0,SSE,4.6,-,N/A,,Scattered Clouds,160,2014-01-13 20:35:00
3:55 PM,53.6,28.4,38,29.98,10.0,SE,5.8,-,N/A,,Mostly Cloudy,130,2014-01-13 20:55:00
4:15 PM,51.8,32.0,47,29.93,10.0,East,4.6,-,N/A,Rain,Light Rain,80,2014-01-13 21:15:00
4:35 PM,51.8,33.8,50,29.93,10.0,ESE,3.5,-,N/A,Rain,Light Rain,120,2014-01-13 21:35:00
4:55 PM,48.2,39.2,71,29.96,7.0,Calm,Calm,-,N/A,Rain,Rain,0,2014-01-13 21:55:00
5:15 PM,50.0,37.4,62,29.96,10.0,Calm,Calm,-,N/A,Rain,Light Rain,0,2014-01-13 22:15:00
5:35 PM,48.2,39.2,71,29.96,7.0,Calm,Calm,-,N/A,Rain,Light Rain,0,2014-01-13 22:35:00
5:55 PM,46.4,41.0,81,29.95,7.0,Calm,Calm,-,N/A,Rain,Light Rain,0,2014-01-13 22:55:00
6:15 PM,46.4,42.8,87,29.96,7.0,East,4.6,-,N/A,Rain,Light Rain,100,2014-01-13 23:15:00
6:35 PM,46.4,42.8,87,29.96,7.0,East,5.8,-,N/A,,Drizzle,100,2014-01-13 23:35:00
6:55 PM,46.4,42.8,87,29.94,7.0,East,5.8,-,N/A,Rain,Rain,90,2014-01-13 23:55:00
7:15 PM,46.4,42.8,87,29.96,5.0,ESE,6.9,-,N/A,Rain,Rain,110,2014-01-14 00:15:00
7:35 PM,46.4,42.8,87,29.97,5.0,East,5.8,-,N/A,Rain,Rain,100,2014-01-14 00:35:00
7:55 PM,46.4,42.8,87,29.96,4.0,East,6.9,-,N/A,Rain,Rain,90,2014-01-14 00:55:00
8:15 PM,46.4,42.8,87,29.96,4.0,ENE,5.8,-,N/A,Rain,Rain,70,2014-01-14 01:15:00
8:35 PM,46.4,42.8,87,29.95,4.0,ENE,5.8,-,N/A,,Drizzle,70,2014-01-14 01:35:00
8:55 PM,46.4,42.8,87,29.94,5.0,ENE,6.9,-,N/A,,Light Drizzle,70,2014-01-14 01:55:00
9:15 PM,46.4,42.8,87,29.94,2.5,ENE,8.1,-,N/A,Rain,Rain,70,2014-01-14 02:15:00
9:35 PM,46.4,42.8,87,29.94,4.0,Calm,Calm,-,N/A,Rain,Rain,0,2014-01-14 02:35:00
9:55 PM,44.6,42.8,93,29.94,3.0,East,4.6,-,N/A,Rain,Light Rain,80,2014-01-14 02:55:00
10:15 PM,44.6,42.8,93,29.94,4.0,ENE,5.8,-,N/A,Rain,Rain,70,2014-01-14 03:15:00
10:35 PM,44.6,42.8,93,29.93,2.5,East,4.6,-,N/A,,Drizzle,80,2014-01-14 03:35:00
10:55 PM,44.6,42.8,93,29.92,2.5,ENE,5.8,-,N/A,,Drizzle,70,2014-01-14 03:55:00
11:15 PM,44.6,42.8,93,29.92,3.0,ENE,4.6,-,N/A,Rain,Light Rain,70,2014-01-14 04:15:00
11:35 PM,44.6,42.8,93,29.91,1.8,ENE,4.6,-,N/A,Rain,Light Rain,70,2014-01-14 04:35:00
11:55 PM,44.6,42.8,93,29.90,1.8,East,3.5,-,N/A,Rain,Rain,80,2014-01-14 04:55:00